| time (UTC) | temp C | wind direction | speed KPH | gust KPH | rain 1hr cm | rain 24hr cm | rain mn cm | humidity % | barometer mb |
| 20260505093027 | 12 | 13 | 0.0 | 0.0 | 0.00 | 0.00 | 0.00 | 83 | 1009.0 |
| 20260505091517 | 12 | 24 | 0.0 | 1.6 | 0.00 | 0.00 | 0.00 | 84 | 1009.0 |
| 20260505090015 | 12 | 30 | 0.0 | 0.0 | 0.00 | 0.00 | 0.00 | 85 | 1009.0 |
| 20260505084517 | 11 | 360 | 0.0 | 0.0 | 0.00 | 0.00 | 0.00 | 86 | 1009.0 |
| 20260505083013 | 11 | 59 | 0.0 | 12.9 | 0.00 | 0.00 | 0.00 | 86 | 1009.1 |
| 20260505081516 | 11 | 5 | 0.0 | 0.0 | 0.00 | 0.00 | 0.00 | 87 | 1009.0 |
| 20260505080014 | 11 | 17 | 0.0 | 0.0 | 0.00 | 0.00 | 0.00 | 87 | 1008.9 |
| 20260505074514 | 11 | 355 | 0.0 | 0.0 | 0.00 | 0.00 | 0.00 | 87 | 1008.8 |
| 20260505073012 | 11 | 326 | 0.0 | 1.6 | 0.00 | 0.00 | 0.00 | 87 | 1009.0 |
| 20260505071511 | 12 | 355 | 0.0 | 0.0 | 0.00 | 0.00 | 0.00 | 87 | 1008.9 |
| 20260505070012 | 12 | 355 | 0.0 | 0.0 | 0.00 | 0.00 | 0.00 | 87 | 1008.9 |
| 20260505064511 | 12 | 15 | 0.0 | 0.0 | 0.00 | 0.00 | 0.00 | 87 | 1009.1 |
| 20260505063012 | 12 | 350 | 0.0 | 0.0 | 0.00 | 0.00 | 0.00 | 87 | 1009.2 |
| 20260505061509 | 11 | 344 | 0.0 | 1.6 | 0.00 | 0.00 | 0.00 | 87 | 1009.2 |
| 20260505060022 | 11 | 79 | 0.0 | 0.0 | 0.00 | 0.00 | 0.00 | 87 | 1009.2 |
| 20260505054512 | 11 | 17 | 0.0 | 0.0 | 0.00 | 0.00 | 0.00 | 87 | 1009.2 |
| 20260505053008 | 11 | 15 | 0.0 | 0.0 | 0.00 | 0.00 | 0.00 | 87 | 1009.1 |
| 20260505051507 | 11 | 46 | 0.0 | 0.0 | 0.00 | 0.00 | 0.00 | 87 | 1009.2 |
| 20260505041507 | 11 | 76 | 0.0 | 0.0 | 0.00 | 0.00 | 0.00 | 87 | 1009.2 |
| 20260505040005 | 12 | 355 | 0.0 | 0.0 | 0.00 | 0.00 | 0.00 | 87 | 1009.4 |
| 20260505034504 | 12 | 360 | 0.0 | 0.0 | 0.00 | 0.00 | 0.00 | 86 | 1009.5 |
| 20260505033007 | 12 | 355 | 0.0 | 0.0 | 0.00 | 0.00 | 0.00 | 87 | 1009.7 |
| 20260505031502 | 12 | 325 | 0.0 | 1.6 | 0.00 | 0.00 | 0.00 | 87 | 1009.8 |
| 20260505030003 | 12 | 15 | 0.0 | 0.0 | 0.00 | 0.00 | 0.00 | 87 | 1009.8 |
| 20260505024504 | 12 | 26 | 0.0 | 0.0 | 0.00 | 0.00 | 0.00 | 87 | 1009.9 |
| 20260505023002 | 12 | 344 | 0.0 | 1.6 | 0.00 | 0.00 | 0.00 | 87 | 1009.9 |
| 20260505021502 | 12 | 16 | 0.0 | 0.0 | 0.00 | 0.00 | 0.00 | 87 | 1009.9 |
| 20260505020001 | 12 | 18 | 0.0 | 0.0 | 0.00 | 0.00 | 0.00 | 88 | 1009.8 |
| 20260505014505 | 12 | 334 | 0.0 | 0.0 | 0.00 | 0.00 | 0.00 | 88 | 1009.8 |
| 20260505013100 | 12 | 26 | 0.0 | 0.0 | 0.00 | 0.00 | 0.00 | 88 | 1009.8 |
| 20260505011601 | 12 | 20 | 0.0 | 0.0 | 0.00 | 0.00 | 0.00 | 88 | 1010.0 |
| 20260505004600 | 12 | 5 | 0.0 | 0.0 | 0.00 | 0.00 | 0.00 | 89 | 1010.2 |
| 20260505003057 | 12 | 360 | 0.0 | 0.0 | 0.00 | 0.00 | 0.00 | 89 | 1010.3 |
| 20260505001555 | 12 | 257 | 0.0 | 0.0 | 0.00 | 0.00 | 0.00 | 89 | 1010.3 |
| 20260505000100 | 12 | 13 | 0.0 | 0.0 | 0.00 | 0.00 | 0.00 | 89 | 1010.3 |
| 20260504234616 | 12 | 300 | 0.0 | 0.0 | 0.00 | 0.00 | 0.00 | 89 | 1010.4 |
| 20260504233056 | 12 | 295 | 0.0 | 0.0 | 0.00 | 0.00 | 0.00 | 89 | 1010.5 |
| 20260504231601 | 12 | 13 | 0.0 | 0.0 | 0.00 | 0.00 | 0.00 | 89 | 1010.7 |
| 20260504230054 | 12 | 360 | 0.0 | 0.0 | 0.00 | 0.00 | 0.00 | 89 | 1010.9 |
| 20260504224603 | 12 | 336 | 0.0 | 0.0 | 0.00 | 0.00 | 0.00 | 89 | 1011.0 |
| 20260504223052 | 12 | 42 | 0.0 | 0.0 | 0.00 | 0.00 | 0.00 | 88 | 1011.0 |
| 20260504221602 | 12 | 277 | 0.0 | 0.0 | 0.00 | 0.00 | 0.00 | 88 | 1011.2 |
| 20260504220055 | 12 | 238 | 0.0 | 0.0 | 0.00 | 0.00 | 0.00 | 88 | 1011.3 |
| 20260504214555 | 12 | 346 | 0.0 | 0.0 | 0.00 | 0.00 | 0.00 | 88 | 1011.4 |
| 20260504213102 | 12 | 344 | 0.0 | 0.0 | 0.00 | 0.00 | 0.00 | 88 | 1011.5 |
| 20260504211551 | 12 | 350 | 0.0 | 0.0 | 0.00 | 0.00 | 0.00 | 87 | 1011.7 |
| 20260504204634 | 12 | 5 | 0.0 | 0.0 | 0.00 | 0.00 | 0.00 | 87 | 1012.0 |
| 20260504203052 | 12 | 342 | 0.0 | 0.0 | 0.00 | 0.00 | 0.00 | 86 | 1011.9 |
| 20260504201549 | 12 | 355 | 0.0 | 0.0 | 0.00 | 0.23 | 0.00 | 86 | 1011.7 |
| 20260504200008 | 12 | 347 | 0.0 | 1.6 | 0.00 | 0.23 | 0.00 | 85 | 1011.8 |
| 20260504194504 | 12 | 5 | 0.0 | 0.0 | 0.00 | 0.23 | 0.00 | 85 | 1011.8 |
| 20260504193100 | 12 | 355 | 0.0 | 0.0 | 0.00 | 0.23 | 0.00 | 85 | 1011.7 |
| 20260504191559 | 12 | 360 | 0.0 | 0.0 | 0.00 | 0.23 | 0.00 | 85 | 1011.5 |
| 20260504190053 | 13 | 355 | 0.0 | 0.0 | 0.00 | 0.23 | 0.00 | 84 | 1011.5 |
| 20260504184555 | 13 | 34 | 0.0 | 0.0 | 0.00 | 0.23 | 0.00 | 84 | 1011.5 |
| 20260504183040 | 13 | 15 | 0.0 | 1.6 | 0.00 | 0.23 | 0.00 | 84 | 1011.5 |
| 20260504181538 | 13 | 315 | 0.0 | 0.0 | 0.00 | 0.23 | 0.00 | 84 | 1011.1 |
| 20260504180100 | 13 | 29 | 0.0 | 0.0 | 0.00 | 0.23 | 0.00 | 84 | 1011.1 |
| 20260504174559 | 13 | 344 | 0.0 | 0.0 | 0.00 | 0.23 | 0.00 | 84 | 1011.1 |
| 20260504173056 | 13 | 306 | 0.0 | 0.0 | 0.00 | 0.23 | 0.00 | 84 | 1011.2 |
| 20260504171556 | 14 | 22 | 0.0 | 6.4 | 0.00 | 0.23 | 0.00 | 84 | 1011.1 |